Weather History for Fergus Falls, MN

Change the Weather History Date:

Tuesday, November 20, 2012

  Actual Average Record
Temperature  
Mean Temperature 32 °F -  
Max Temperature 48 °F 33 °F 59 °F (1989)
Min Temperature 17 °F 19 °F -4 °F (1978)
Degree Days  
Heating Degree Days 32    
Moisture  
Dew Point 26 °F    
Average Humidity 74    
Maximum Humidity 100    
Minimum Humidity 40    
Precipitation  
Precipitation 0.00 in - - ()
Sea Level Pressure  
Sea Level Pressure 30.05 in    
Wind  
Wind Speed 5 mph (SSE)    
Max Wind Speed 16 mph    
Max Gust Speed 20 mph    
Visibility 6 miles    
Events Fog    
Averages and records for this station are not official NWS values.
T = Trace of Precipitation, MM = Missing Value Source: NWS Daily Summary

Daily Weather History Graph

Daily Weather History Graph

Search for Another Location

Airport:

Trip Planner

Search our weather history database for the weather conditions in past years. The results will help you decide how hot, cold, wet, or windy it might be!

Date:

Astronomy

Nov. 20, 2012 Rise Set
Actual Time 7:33 AM CST 4:46 PM CST
Civil Twilight 7:00 AM CST 5:19 PM CST
Nautical Twilight 6:23 AM CST 5:56 PM CST
Astronomical Twilight 5:47 AM CST 6:32 PM CST
Moon 12:56 PM CST (11/20) No Moon Set
Length of Visible Light 10h 19m
Length of Day
9h 13m
First Quarter, 51% of the Moon is Illuminated
Nov 20
First Quarter
Nov 28
Full
Dec 6
Last Quarter
Dec 13
New
Dec 19
First Quarter

Hourly Weather History & Observations

Time (CST) Temp. Windchill Dew Point Humidity Pressure Visibility Wind Dir Wind Speed Gust Speed Precip Events Conditions
12:13 AM 26.6 °F 22.6 °F 26.6 °F 100% 30.13 in 4.0 mi NE 3.5 mph - N/A   Clear
12:33 AM 24.8 °F - 24.8 °F 100% 30.13 in 4.0 mi Calm Calm - N/A   Clear
12:53 AM 26.6 °F - 26.6 °F 100% 30.13 in 5.0 mi Calm Calm - N/A   Clear
1:13 AM 24.8 °F - 23.0 °F 93% 30.13 in 4.0 mi Calm Calm - N/A   Clear
1:33 AM 24.8 °F - 23.0 °F 93% 30.14 in 3.0 mi Calm Calm - N/A   Clear
1:53 AM 24.8 °F - 24.8 °F 100% 30.14 in 2.0 mi Calm Calm - N/A   Clear
2:13 AM 21.2 °F 16.4 °F 19.4 °F 93% 30.16 in 3.0 mi West 3.5 mph - N/A   Scattered Clouds
2:33 AM 17.6 °F - 17.6 °F 100% 30.16 in 0.2 mi Calm Calm - N/A Fog Light Freezing Fog
2:53 AM 19.4 °F - 17.6 °F 93% 30.15 in 1.0 mi Calm Calm - N/A   Overcast
3:13 AM 17.6 °F - 17.6 °F 100% 30.15 in 0.2 mi Calm Calm - N/A Fog Light Freezing Fog
3:33 AM 17.6 °F - 15.8 °F 93% 30.16 in 0.2 mi Calm Calm - N/A Fog Light Freezing Fog
3:53 AM 19.4 °F - 17.6 °F 93% 30.15 in 0.2 mi Calm Calm - N/A Fog Light Freezing Fog
4:13 AM 19.4 °F 12.8 °F 17.6 °F 93% 30.14 in 0.5 mi East 4.6 mph - N/A Fog Light Freezing Fog
4:33 AM 21.2 °F 16.4 °F 21.2 °F 100% 30.14 in 0.2 mi ESE 3.5 mph - N/A Fog Light Freezing Fog
4:53 AM 23.0 °F 18.4 °F 21.2 °F 93% 30.13 in 0.2 mi ESE 3.5 mph - N/A Fog Light Freezing Fog
5:13 AM 21.2 °F 16.4 °F 21.2 °F 100% 30.13 in 0.2 mi ESE 3.5 mph - N/A Fog Light Freezing Fog
5:33 AM 23.0 °F - 21.2 °F 93% 30.13 in 0.5 mi Calm Calm - N/A Fog Light Freezing Fog
5:53 AM 23.0 °F - 21.2 °F 93% 30.14 in 0.5 mi Calm Calm - N/A Fog Light Freezing Fog
6:13 AM 21.2 °F - 19.4 °F 93% 30.15 in 0.2 mi Calm Calm - N/A Fog Light Freezing Fog
6:33 AM 19.4 °F - 17.6 °F 93% 30.16 in 3.0 mi Calm Calm - N/A   Overcast
6:53 AM 19.4 °F - 17.6 °F 93% 30.16 in 0.2 mi Calm Calm - N/A Fog Light Freezing Fog
7:13 AM 19.4 °F - 19.4 °F 100% 30.16 in 0.2 mi Calm Calm - N/A Fog Light Freezing Fog
7:33 AM 21.2 °F - 19.4 °F 93% 30.16 in 0.2 mi Calm Calm - N/A Fog Light Freezing Fog
7:53 AM 21.2 °F 16.4 °F 19.4 °F 93% 30.15 in 0.2 mi ESE 3.5 mph - N/A Fog Light Freezing Fog
8:13 AM 21.2 °F 16.4 °F 21.2 °F 100% 30.14 in 0.2 mi SE 3.5 mph - N/A Fog Light Freezing Fog
8:33 AM 24.8 °F 20.5 °F 24.8 °F 100% 30.14 in 0.5 mi SE 3.5 mph - N/A Fog Light Freezing Fog
8:53 AM 26.6 °F 21.2 °F 24.8 °F 93% 30.14 in 1.2 mi SE 4.6 mph - N/A   Overcast
9:13 AM 26.6 °F 21.2 °F 26.6 °F 100% 30.13 in 0.8 mi SE 4.6 mph - N/A   Overcast
9:33 AM 28.4 °F 24.6 °F 28.4 °F 100% 30.14 in 1.0 mi South 3.5 mph - N/A   Mostly Cloudy
9:53 AM 30.2 °F 25.4 °F 28.4 °F 93% 30.14 in 2.0 mi South 4.6 mph - N/A   Mostly Cloudy
10:13 AM 30.2 °F 21.9 °F 30.2 °F 100% 30.13 in 4.0 mi SSE 9.2 mph - N/A   Clear
10:33 AM 33.8 °F 25.3 °F 33.8 °F 100% 30.13 in 7.0 mi SSE 11.5 mph - N/A   Clear
10:53 AM 33.8 °F 26.4 °F 33.8 °F 100% 30.12 in 7.0 mi SSE 9.2 mph - N/A   Clear
11:13 AM 37.4 °F 29.8 °F 35.6 °F 93% 30.12 in 7.0 mi SSE 11.5 mph - N/A   Clear
11:34 AM 39.2 °F 33.0 °F 35.6 °F 87% 30.10 in 10.0 mi SSE 9.2 mph - N/A   Clear
11:53 AM 42.8 °F 37.0 °F 33.8 °F 70% 30.09 in 10.0 mi SSE 10.4 mph - N/A   Clear
12:13 PM 44.6 °F 38.8 °F 32.0 °F 61% 30.09 in 10.0 mi South 11.5 mph - N/A   Clear
12:33 PM 44.6 °F 39.2 °F 32.0 °F 61% 30.07 in 10.0 mi South 10.4 mph - N/A   Clear
12:53 PM 44.6 °F 38.1 °F 32.0 °F 61% 30.06 in 10.0 mi SSE 13.8 mph - N/A   Clear
1:13 PM 46.4 °F 41.1 °F 32.0 °F 57% 30.05 in 10.0 mi SE 11.5 mph - N/A   Clear
1:33 PM 46.4 °F 41.5 °F 30.2 °F 53% 30.04 in 10.0 mi SSE 10.4 mph - N/A   Clear
1:53 PM 48.2 °F - 30.2 °F 50% 30.02 in 10.0 mi SSE 13.8 mph - N/A   Clear
2:13 PM 48.2 °F - 28.4 °F 46% 30.00 in 10.0 mi SSE 13.8 mph - N/A   Clear
2:33 PM 48.2 °F - 28.4 °F 46% 29.99 in 10.0 mi SSE 12.7 mph - N/A   Clear
2:53 PM 48.2 °F - 28.4 °F 46% 29.99 in 10.0 mi SE 12.7 mph - N/A   Clear
3:13 PM 48.2 °F - 26.6 °F 43% 29.98 in 10.0 mi SE 12.7 mph - N/A   Clear
3:34 PM 48.2 °F - 26.6 °F 43% 29.98 in 10.0 mi SE 12.7 mph - N/A   Clear
3:53 PM 46.4 °F 41.5 °F 26.6 °F 46% 29.97 in 10.0 mi SE 10.4 mph - N/A   Clear
4:13 PM 46.4 °F 40.7 °F 26.6 °F 46% 29.96 in 10.0 mi SE 12.7 mph - N/A   Clear
4:33 PM 46.4 °F 40.7 °F 26.6 °F 46% 29.96 in 10.0 mi SE 12.7 mph - N/A   Clear
4:53 PM 46.4 °F 40.4 °F 24.8 °F 43% 29.95 in 10.0 mi SE 13.8 mph 17.3 mph N/A   Clear
5:13 PM 46.4 °F 40.7 °F 24.8 °F 43% 29.95 in 10.0 mi SE 12.7 mph 18.4 mph N/A   Clear
5:33 PM 44.6 °F 37.8 °F 23.0 °F 43% 29.95 in 10.0 mi SE 15.0 mph 19.6 mph N/A   Clear
5:53 PM 46.4 °F 40.4 °F 23.0 °F 40% 29.95 in 10.0 mi SSE 13.8 mph - N/A   Clear
6:13 PM 46.4 °F 40.1 °F 23.0 °F 40% 29.95 in 10.0 mi SSE 15.0 mph 19.6 mph N/A   Clear
6:33 PM 44.6 °F 38.1 °F 24.8 °F 46% 29.95 in 10.0 mi SSE 13.8 mph - N/A   Clear
6:53 PM 42.8 °F 35.8 °F 26.6 °F 53% 29.96 in 10.0 mi SSE 13.8 mph - N/A   Clear
7:13 PM 42.8 °F 35.8 °F 26.6 °F 53% 29.95 in 10.0 mi SSE 13.8 mph - N/A   Clear
7:33 PM 42.8 °F 35.1 °F 28.4 °F 57% 29.94 in 10.0 mi SSE 16.1 mph - N/A   Clear
7:53 PM 44.6 °F 37.8 °F 30.2 °F 57% 29.94 in 10.0 mi SSE 15.0 mph - N/A   Clear
8:13 PM 44.6 °F 37.8 °F 30.2 °F 57% 29.94 in 10.0 mi SSE 15.0 mph - N/A   Clear
8:33 PM 44.6 °F 38.1 °F 30.2 °F 57% 29.94 in 10.0 mi SSE 13.8 mph - N/A   Clear
8:53 PM 42.8 °F 35.8 °F 30.2 °F 61% 29.93 in 10.0 mi SSE 13.8 mph - N/A   Clear
9:13 PM 42.8 °F 35.1 °F 30.2 °F 61% 29.91 in 10.0 mi SSE 16.1 mph - N/A   Clear
9:33 PM 42.8 °F 35.4 °F 28.4 °F 57% 29.90 in 10.0 mi SSE 15.0 mph - N/A   Clear
9:53 PM 42.8 °F 37.0 °F 28.4 °F 57% 29.91 in 10.0 mi SSE 10.4 mph - N/A   Clear
10:13 PM 42.8 °F 36.6 °F 28.4 °F 57% 29.91 in 10.0 mi SSE 11.5 mph - N/A   Clear
10:33 PM 41.0 °F 34.3 °F 28.4 °F 61% 29.91 in 10.0 mi SSE 11.5 mph - N/A   Clear
10:53 PM 41.0 °F 35.2 °F 28.4 °F 61% 29.91 in 10.0 mi SSE 9.2 mph - N/A   Clear
11:14 PM 41.0 °F 35.8 °F 28.4 °F 61% 29.91 in 10.0 mi SSE 8.1 mph - N/A   Clear
11:33 PM 39.2 °F 34.2 °F 28.4 °F 65% 29.91 in 10.0 mi SSE 6.9 mph - N/A   Clear
11:53 PM 39.2 °F 33.6 °F 28.4 °F 65% 29.90 in 10.0 mi SE 8.1 mph - N/A   Clear